Location: Asheville, NC
(35.6000°N, 82.5500°W)
Time: 18:38:35
(UTC-04:00)

KKS-1 - Pass Details

Date: 10 February 2018
Orbit: 637 x 651 km, 98.4° (Epoch: 21 May)

Event Time Altitude Azimuth Distance (km) Brightness Sun altitude
Rises 05:05:29 0° 161° (SSE) 2,920 ? -28.3°
Reaches altitude 10° 05:07:41 10° 159° (SSE) 2,017 ? -27.8°
Enters shadow 05:11:11 54° 137° (SE) 774 ? -27.1°
